This is the latest recevied weather packets stored in our database for station/object N4CRH-13. If no packets are shown the sender has not sent any weather packets the latest 10 day(s).
| Time | Temp. | Humidity | Pressure | Rain* | Wind** | Luminosity | Snow |
|---|---|---|---|---|---|---|---|
| 1777473078 | 5.56° C | 79% | 1297.3 hPa | 0 mm | - | 160 W/m² | - |
| 1777472775 | 5.56° C | 83% | 1297.5 hPa | 0 mm | - | 142 W/m² | - |
| 1777472472 | 5.56° C | 84% | 1297.4 hPa | 0 mm | - | 139 W/m² | - |
| 1777472169 | 4.44° C | 86% | 1297.3 hPa | 0 mm | - | 126 W/m² | - |
| 1777471869 | 4.44° C | 85% | 1297.4 hPa | 0 mm | - | 106 W/m² | - |
| 1777471566 | 4.44° C | 86% | 1297.3 hPa | 0 mm | - | 88 W/m² | - |
| 1777471263 | 4.44° C | 85% | 1297.4 hPa | 0 mm | - | 123 W/m² | - |
| 1777470960 | 4.44° C | 86% | 1297.3 hPa | 0 mm | - | 119 W/m² | - |
| 1777470657 | 3.89° C | 90% | 1297.5 hPa | 0 mm | - | 148 W/m² | - |
| 1777470352 | 3.89° C | 89% | 1297.5 hPa | 0 mm | - | 82 W/m² | - |
| 1777470044 | 3.89° C | 88% | 1297.4 hPa | 0 mm | - | 105 W/m² | - |
| 1777469740 | 3.89° C | 89% | 1297.5 hPa | 0 mm | - | 120 W/m² | - |
| 1777469435 | 3.89° C | 88% | 1297.4 hPa | 0 mm | - | 78 W/m² | - |
| 1777469130 | 4.44° C | 87% | 1297.6 hPa | 0 mm | - | 94 W/m² | - |
| 1777468825 | 3.89° C | 88% | 1297.8 hPa | 0 mm | - | 83 W/m² | - |
| 1777468522 | 3.33° C | 90% | 1297.6 hPa | 0 mm | - | 56 W/m² | - |
| 1777468219 | 2.78° C | 92% | 1297.6 hPa | 0 mm | - | 48 W/m² | - |
| 1777467915 | 2.22° C | 92% | 1297.5 hPa | 0 mm | - | 30 W/m² | - |
| 1777467611 | 2.22° C | 92% | 1297.8 hPa | 0 mm | - | 28 W/m² | - |
| 1777467306 | 2.22° C | 92% | 1297.8 hPa | 0 mm | - | 22 W/m² | - |
| 1777467003 | 2.22° C | 93% | 1297.8 hPa | 0 mm | - | 24 W/m² | - |
| 1777466700 | 1.67° C | 93% | 1297.6 hPa | 0 mm | - | 20 W/m² | - |
| 1777466397 | 1.67° C | 93% | 1297.4 hPa | 0 mm | - | 18 W/m² | - |
| 1777466093 | 1.67° C | 93% | 1297.4 hPa | 0 mm | - | 19 W/m² | - |
| 1777465789 | 1.67° C | 93% | 1297.4 hPa | 0 mm | - | 15 W/m² | - |
* Rain latest hour (hover to see other rain measurements)
** Current wind speed in m/s (hover to see current wind gust speed)